COGNAC current weather conditions

sailwx.info

Air temperature 2.0° C
Visibility: greater than 5.4 NM
Dewpoint -0.0° C

Last reported at 2017-Dec-17 00:00 UTC.
Time now 2017-Dec-17 00:38 UTC

Location: N 45°40' W 000°19'.
View on Google Maps.

See reports from other nearby stations

  
Tides and Currents Weather Stations Pressure Air Temp Water Temp Dewpoint Dewpoint Depression Visibility Wind Speed Wind Dir Waves Ship Positions
date/time (UTC)wind fromknots sea level pressurealtimeterstation pressurevisibilityair tempwater tempwave heightnotes
2017-Dec-17 00:00 5.4 2.0
2017-Dec-16 23:30 240 1 5.4 2.0
2017-Dec-16 23:00 250 2 5.4 2.0
2017-Dec-16 22:30 5.4 2.0
2017-Dec-16 22:00 5.4 2.0
2017-Dec-16 21:30 240 2 5.4 2.0
2017-Dec-16 21:00 260 4 5.4 2.0
2017-Dec-16 20:30 260 2 5.4 2.0
2017-Dec-16 20:00 250 2 5.4 3.0
2017-Dec-16 19:30 260 4 5.4 3.0
2017-Dec-16 19:00 250 4 5.4 3.0
2017-Dec-16 18:30 280 2 5.4 4.0
2017-Dec-16 18:00 280 6 5.4 4.0
2017-Dec-16 17:30 270 4 5.4 5.0
2017-Dec-16 17:00 290 4 5.4 5.0
2017-Dec-16 16:30 310 4 5.4 6.0
2017-Dec-16 16:00 310 6 5.4 7.0
2017-Dec-16 15:30 330 6 5.4 8.0
2017-Dec-16 15:00 340 6 5.4 8.0
2017-Dec-16 14:30 350 9 5.4 8.0
2017-Dec-16 14:00 340 8 5.4 9.0
2017-Dec-16 13:30 350 7 5.4 8.0
2017-Dec-16 13:00 350 7 5.4 8.0
2017-Dec-16 12:30 340 8 5.4 8.0
2017-Dec-16 12:00 350 8 5.4 7.0
2017-Dec-16 11:30 340 6 5.4 6.0
2017-Dec-16 11:00 5.4 5.0
2017-Dec-16 10:30 270 2 5.4 3.0
2017-Dec-16 10:00 260 2 5.4 3.0
2017-Dec-16 09:30 260 0 5.4 2.0
2017-Dec-16 09:00 280 1 5.4 2.0
2017-Dec-16 08:30 270 4 4.9 2.0
2017-Dec-16 08:00 260 4 5.4 2.0
2017-Dec-16 07:30 260 4 5.4 1.0
2017-Dec-16 07:00 280 1 5.4 1.0
2017-Dec-16 06:30 260 5 5.4 1.0
2017-Dec-16 06:00 260 4 4.3 1.0
2017-Dec-16 05:30 290 1 5.4 1.0
2017-Dec-16 05:00 260 6 5.4 1.0
2017-Dec-16 04:30 240 4 5.4 1.0
2017-Dec-16 04:00 230 2 5.4 1.0
2017-Dec-16 03:30 5.4-0.0
2017-Dec-16 03:00 290 2 5.4 1.0
2017-Dec-16 02:30 280 4 5.4 1.0
2017-Dec-16 02:00 270 5 5.4 1.0
2017-Dec-16 01:30 5.4 1.0
2017-Dec-16 01:00 310 4 5.4 2.0
2017-Dec-16 00:30 290 4 5.4 3.0
2017-Dec-16 00:00 280 5 5.4 3.0
2017-Dec-15 23:30 260 4 5.4 4.0
2017-Dec-15 23:00 260 6 5.4 4.0
2017-Dec-15 22:30 250 6 5.4 4.0
2017-Dec-15 22:00 240 6 5.4 4.0
2017-Dec-15 21:30 290 5 5.4 5.0
2017-Dec-15 21:00 310 6 5.4 6.0
2017-Dec-15 20:30 310 5 5.4 6.0
2017-Dec-15 20:00 320 6 5.4 6.0
2017-Dec-15 19:30 310 6 5.4 7.0
2017-Dec-15 19:00 320 7 5.4 7.0
2017-Dec-15 18:30 310 6 5.4 7.0
2017-Dec-15 18:00 280 6 5.4 6.0
2017-Dec-15 17:30 270 6 5.4 7.0
2017-Dec-15 17:00 280 6 5.4 8.0
2017-Dec-15 16:30 280 7 5.4 8.0
2017-Dec-15 16:00 290 11 5.4 9.0
2017-Dec-15 15:30 270 11 5.410.0
2017-Dec-15 15:00 280 11 5.410.0
2017-Dec-15 14:30 280 8 5.410.0
2017-Dec-15 14:00 290 9 5.4 9.0
2017-Dec-15 13:30 290 7 5.4 9.0
2017-Dec-15 13:00 320 7 5.4 7.0
2017-Dec-15 12:30 320 6 5.4 7.0 Light rain.
2017-Dec-15 12:00 290 5 3.8 7.0 Rain.
2017-Dec-15 11:30 200 11 5.4 8.0
2017-Dec-15 11:00 220 7 5.4 9.0
2017-Dec-15 10:30 260 11 5.4 8.0
2017-Dec-15 10:00 220 9 5.4 9.0
2017-Dec-15 09:30 200 6 5.4 7.0
2017-Dec-15 09:00 200 7 5.4 6.0 Light rain.
2017-Dec-15 08:30 200 6 5.4 5.0